Eveleth, MN

12:11 AM CST on February 27, 2017 (GMT -0600)
Eveleth-Virginia Municipal

Weather History for KEVM - November, 2011

Change the Weather History Date:

Saturday, November 26, 2011

  Actual Average Record
Temperature  
Mean Temperature 34 °F -  
Max Temperature 37 °F 30 °F 41 °F (1986)
Min Temperature 32 °F 15 °F -7 °F (1996)
Degree Days  
Heating Degree Days 30    
Moisture  
Dew Point 33 °F    
Average Humidity 93    
Maximum Humidity 100    
Minimum Humidity 87    
Precipitation  
Precipitation 0.23 in - - ()
Sea Level Pressure  
Sea Level Pressure 29.81 in    
Wind  
Wind Speed 8 mph (NNE)    
Max Wind Speed 14 mph    
Max Gust Speed 22 mph    
Visibility 6 miles    
Events Rain , Snow    
Averages and records for this station are not official NWS values.
T = Trace of Precipitation, MM = Missing Value Source: NWS Daily Summary

Daily Weather History Graph

Daily Weather History Graph

Search for Another Location

Airport or City:

Trip Planner

Search our weather history database for the weather conditions in past years. The results will help you decide how hot, cold, wet, or windy it might be!

Date:

Astronomy

Nov. 26, 2011 Rise Set
Actual Time 7:29 AM CST 4:24 PM CST
Civil Twilight 6:55 AM CST 4:58 PM CST
Nautical Twilight 6:17 AM CST 5:36 PM CST
Astronomical Twilight 5:40 AM CST 6:13 PM CST
Moon 9:05 AM CST (11/26) 5:52 PM CST (11/26)
Length of Visible Light 10h 03m
Length of Day
8h 54m
Waxing Crescent, 3% of the Moon is Illuminated
Nov 26
Waxing Crescent
Dec 2
First Quarter
Dec 10
Full
Dec 17
Last Quarter
Dec 24
New

Hourly Weather History & Observations

Time (CST) Temp. Windchill Dew Point Humidity Pressure Visibility Wind Dir Wind Speed Gust Speed Precip Events Conditions
12:32 AM 37.4 °F 31.4 °F 35.6 °F 93% 29.78 in 4.0 mi East 8.1 mph - N/A   Overcast
12:53 AM 37.4 °F 30.8 °F 35.6 °F 93% 29.78 in 7.0 mi East 9.2 mph 16.1 mph N/A   Overcast
1:12 AM 37.4 °F 30.8 °F 35.6 °F 93% 29.77 in 7.0 mi East 9.2 mph 16.1 mph N/A   Overcast
1:33 AM 37.4 °F 32.1 °F 35.6 °F 93% 29.78 in 7.0 mi ENE 6.9 mph - N/A   Overcast
1:53 AM 37.4 °F 30.3 °F 35.6 °F 93% 29.77 in 7.0 mi ENE 10.4 mph 18.4 mph N/A   Overcast
2:12 AM 37.4 °F 30.8 °F 35.6 °F 93% 29.76 in 7.0 mi ENE 9.2 mph - N/A   Overcast
2:33 AM 37.4 °F 30.3 °F 35.6 °F 93% 29.77 in 10.0 mi ENE 10.4 mph - N/A   Overcast
2:53 AM 37.4 °F 30.8 °F 35.6 °F 93% 29.77 in 10.0 mi ENE 9.2 mph - N/A   Overcast
3:12 AM 37.4 °F 31.4 °F 33.8 °F 87% 29.77 in 10.0 mi ENE 8.1 mph - N/A   Overcast
3:33 AM 35.6 °F 28.0 °F 33.8 °F 93% 29.77 in 7.0 mi ENE 10.4 mph 16.1 mph N/A   Overcast
3:53 AM 35.6 °F 29.2 °F 33.8 °F 93% 29.76 in 5.0 mi ENE 8.1 mph - N/A   Overcast
4:12 AM 35.6 °F 28.6 °F 33.8 °F 93% 29.77 in 7.0 mi ENE 9.2 mph - N/A   Overcast
4:33 AM 35.6 °F 29.2 °F 33.8 °F 93% 29.77 in 10.0 mi ENE 8.1 mph - N/A   Light Drizzle
4:52 AM 35.6 °F 29.2 °F 33.8 °F 93% 29.77 in 10.0 mi ENE 8.1 mph - N/A Rain Light Rain
5:13 AM 35.6 °F 31.7 °F 33.8 °F 93% 29.77 in 10.0 mi ENE 4.6 mph - N/A   Light Drizzle
5:33 AM 35.6 °F 30.7 °F 33.8 °F 93% 29.77 in 10.0 mi ENE 5.8 mph - N/A Rain Rain
5:52 AM 35.6 °F 29.9 °F 33.8 °F 93% 29.76 in 10.0 mi ENE 6.9 mph - N/A Rain Rain
5:59 AM 35.6 °F 29.9 °F 33.8 °F 93% 29.76 in 10.0 mi ENE 6.9 mph - 0.01 in   Drizzle
6:13 AM 35.6 °F 29.9 °F 33.8 °F 93% 29.76 in 10.0 mi ENE 6.9 mph - N/A   Light Drizzle
6:33 AM 35.6 °F 29.9 °F 33.8 °F 93% 29.76 in 10.0 mi ENE 6.9 mph - N/A   Light Drizzle
6:52 AM 35.6 °F 29.9 °F 33.8 °F 93% 29.75 in 10.0 mi ENE 6.9 mph - N/A   Light Drizzle
7:33 AM 35.6 °F 30.7 °F 33.8 °F 93% 29.76 in 10.0 mi NE 5.8 mph - N/A   Light Drizzle
7:52 AM 35.6 °F 30.7 °F 33.8 °F 93% 29.77 in 10.0 mi NNE 5.8 mph - 0.01 in Rain Light Rain
8:13 AM 35.6 °F 32.8 °F 33.8 °F 93% 29.78 in 5.0 mi North 3.5 mph - 0.01 in Rain Rain
8:33 AM 35.6 °F 31.7 °F 33.8 °F 93% 29.79 in 4.0 mi NE 4.6 mph - 0.03 in Rain Rain
8:52 AM 35.6 °F 31.7 °F 33.8 °F 93% 29.79 in 3.0 mi North 4.6 mph - 0.06 in Rain Rain
8:59 AM 35.6 °F 32.8 °F 33.8 °F 93% 29.79 in 3.0 mi North 3.5 mph - 0.07 in Rain Rain
9:13 AM 35.6 °F 31.7 °F 33.8 °F 93% 29.80 in 2.5 mi North 4.6 mph - 0.03 in Rain Rain
9:33 AM 35.6 °F 31.7 °F 33.8 °F 93% 29.80 in 3.0 mi NNW 4.6 mph - 0.06 in Rain Rain
9:59 AM 33.8 °F 29.6 °F 32.0 °F 93% 29.81 in 3.0 mi NNW 4.6 mph - 0.08 in Snow Light Snow
10:12 AM 33.8 °F 29.6 °F 32.0 °F 93% 29.81 in 2.0 mi NNW 4.6 mph - 0.01 in Snow Light Snow
10:33 AM 33.8 °F 30.8 °F 32.0 °F 93% 29.82 in 1.2 mi NNW 3.5 mph - 0.03 in Snow Light Snow
10:52 AM 33.8 °F 29.6 °F 32.0 °F 93% 29.81 in 1.5 mi NNW 4.6 mph - 0.04 in Snow Light Snow
10:59 AM 33.8 °F 30.8 °F 32.0 °F 93% 29.81 in 1.8 mi North 3.5 mph - 0.05 in Snow Light Snow
11:12 AM 33.8 °F 28.6 °F 32.0 °F 93% 29.81 in 2.0 mi North 5.8 mph - N/A Snow Light Snow
11:33 AM 33.8 °F 29.6 °F 32.0 °F 93% 29.81 in 3.0 mi North 4.6 mph - N/A Snow Light Snow
11:53 AM 33.8 °F 27.0 °F 32.0 °F 93% 29.81 in 3.0 mi NNW 8.1 mph - 0.01 in Snow Light Snow
11:59 AM 33.8 °F 27.0 °F 32.0 °F 93% 29.81 in 3.0 mi North 8.1 mph - 0.01 in Snow Light Snow
12:12 PM 33.8 °F 28.6 °F 32.0 °F 93% 29.81 in 3.0 mi NNW 5.8 mph - N/A Snow Light Snow
12:32 PM 33.8 °F 28.6 °F 32.0 °F 93% 29.82 in 3.0 mi NNW 5.8 mph - N/A Snow Light Snow
12:53 PM 33.8 °F 29.6 °F 32.0 °F 93% 29.82 in 5.0 mi North 4.6 mph - N/A Snow Light Snow
1:13 PM 33.8 °F 29.6 °F 32.0 °F 93% 29.82 in 10.0 mi North 4.6 mph - N/A Snow Light Snow
1:53 PM 33.8 °F 26.4 °F 32.0 °F 93% 29.83 in 3.0 mi NW 9.2 mph - N/A Snow Light Snow
2:12 PM 32.0 °F 24.8 °F 32.0 °F 100% 29.84 in 5.0 mi NNW 8.1 mph - N/A   Overcast
2:32 PM 32.0 °F 24.2 °F 32.0 °F 100% 29.84 in 7.0 mi NW 9.2 mph - N/A   Overcast
2:53 PM 32.0 °F 23.0 °F 32.0 °F 100% 29.85 in 4.0 mi NW 11.5 mph - N/A Snow Light Snow
3:13 PM 32.0 °F 24.2 °F 30.2 °F 93% 29.86 in 5.0 mi NNW 9.2 mph - N/A Snow Light Snow
3:32 PM 32.0 °F 24.2 °F 32.0 °F 100% 29.87 in 2.0 mi NW 9.2 mph - N/A Snow Light Snow
3:53 PM 32.0 °F 23.0 °F 30.2 °F 93% 29.88 in 5.0 mi NW 11.5 mph 18.4 mph N/A Snow Light Snow
4:32 PM 32.0 °F 24.2 °F 30.2 °F 93% 29.90 in 5.0 mi NW 9.2 mph 19.6 mph N/A   Overcast
4:53 PM 32.0 °F 22.1 °F 30.2 °F 93% 29.91 in 10.0 mi NW 13.8 mph 20.7 mph N/A   Overcast
5:13 PM 32.0 °F 23.0 °F 30.2 °F 93% 29.92 in 10.0 mi NNW 11.5 mph 21.9 mph N/A   Overcast
5:32 PM 32.0 °F 23.0 °F 30.2 °F 93% 29.93 in 10.0 mi NNW 11.5 mph 20.7 mph N/A   Overcast
5:53 PM 32.0 °F 23.0 °F 30.2 °F 93% 29.94 in 10.0 mi NNW 11.5 mph 20.7 mph N/A   Overcast
6:12 PM 32.0 °F 23.6 °F 30.2 °F 93% 29.95 in 10.0 mi NNW 10.4 mph 21.9 mph N/A   Overcast
6:33 PM 32.0 °F 22.1 °F 30.2 °F 93% 29.95 in 10.0 mi NNW 13.8 mph 20.7 mph N/A   Overcast
6:53 PM 32.0 °F 21.2 °F 30.2 °F 93% 29.95 in 10.0 mi NNW 16.1 mph 20.7 mph N/A   Overcast
7:12 PM 32.0 °F 21.6 °F 30.2 °F 93% 29.96 in 7.0 mi NW 15.0 mph 19.6 mph N/A Snow Light Snow
7:32 PM 32.0 °F 23.0 °F 30.2 °F 93% 29.97 in 7.0 mi NW 11.5 mph 18.4 mph N/A Snow Light Snow
8:12 PM 32.0 °F 20.5 °F 30.2 °F 93% 29.98 in 10.0 mi NW 18.4 mph 25.3 mph N/A   Overcast
8:32 PM 32.0 °F 21.6 °F 30.2 °F 93% 29.98 in 10.0 mi NNW 15.0 mph 24.2 mph N/A   Overcast
8:52 PM 32.0 °F 23.6 °F 30.2 °F 93% 29.99 in 10.0 mi NNW 10.4 mph 20.7 mph N/A   Overcast
9:13 PM 32.0 °F 24.8 °F 30.2 °F 93% 30.00 in 10.0 mi NNW 8.1 mph 20.7 mph N/A   Overcast
10:12 PM 32.0 °F 22.1 °F 28.4 °F 87% 30.00 in 10.0 mi NNW 13.8 mph 23.0 mph N/A   Overcast
10:33 PM 32.0 °F 23.6 °F 26.6 °F 80% 30.00 in 10.0 mi NW 10.4 mph 20.7 mph N/A   Overcast
10:52 PM 32.0 °F 22.5 °F 26.6 °F 80% 30.01 in 10.0 mi NW 12.7 mph 21.9 mph N/A   Overcast
11:12 PM 32.0 °F 21.2 °F 26.6 °F 80% 30.01 in 10.0 mi NNW 16.1 mph 26.5 mph N/A   Overcast
11:33 PM 32.0 °F 21.2 °F 26.6 °F 80% 30.02 in 10.0 mi NNW 16.1 mph 26.5 mph N/A   Overcast
11:52 PM 32.0 °F 21.2 °F 26.6 °F 80% 30.03 in 10.0 mi NNW 16.1 mph 28.8 mph N/A   Overcast